| time (UTC) | temp F | wind direction | speed MPH | gust MPH | rain 1hr in | rain 24hr in | rain mn in | humidity % | barometer mb |
| 20260506190630 | 36 | 0.0 | 0.0 | 0.00 | 0.00 | 0.00 | 995.6 | ||
| 20260506185629 | 36 | 0.0 | 0.0 | 0.00 | 0.00 | 0.00 | 995.6 | ||
| 20260506184629 | 36 | 0.0 | 0.0 | 0.00 | 0.00 | 0.00 | 995.5 | ||
| 20260506183628 | 37 | 0.0 | 0.0 | 0.00 | 0.00 | 0.00 | 995.5 | ||
| 20260506182628 | 37 | 0.0 | 0.0 | 0.00 | 0.00 | 0.00 | 995.4 | ||
| 20260506181627 | 38 | 0.0 | 0.0 | 0.00 | 0.00 | 0.00 | 995.3 | ||
| 20260506180627 | 38 | 0.0 | 0.0 | 0.00 | 0.00 | 0.00 | 995.2 | ||
| 20260506175626 | 38 | 0.0 | 0.0 | 0.00 | 0.00 | 0.00 | 995.1 | ||
| 20260506174626 | 38 | 0.0 | 0.0 | 0.00 | 0.00 | 0.00 | 995.0 | ||
| 20260506173625 | 39 | 0.0 | 0.0 | 0.00 | 0.00 | 0.00 | 995.0 | ||
| 20260506172625 | 40 | 0.0 | 0.0 | 0.00 | 0.00 | 0.00 | 994.9 | ||
| 20260506171624 | 39 | 0.0 | 0.0 | 0.00 | 0.00 | 0.00 | 994.9 | ||
| 20260506170624 | 39 | 0.0 | 0.0 | 0.00 | 0.00 | 0.00 | 994.8 | ||
| 20260506165623 | 39 | 0.0 | 0.0 | 0.00 | 0.00 | 0.00 | 994.7 | ||
| 20260506164623 | 40 | 0.0 | 0.0 | 0.00 | 0.00 | 0.00 | 994.6 | ||
| 20260506163622 | 39 | 0.0 | 0.0 | 0.00 | 0.00 | 0.00 | 994.5 | ||
| 20260506162622 | 39 | 0.0 | 0.0 | 0.00 | 0.00 | 0.00 | 994.4 | ||
| 20260506161621 | 39 | 0.0 | 0.0 | 0.00 | 0.00 | 0.00 | 994.4 | ||
| 20260506160621 | 39 | 0.0 | 0.0 | 0.00 | 0.00 | 0.00 | 994.2 | ||
| 20260506155620 | 39 | 0.0 | 0.0 | 0.00 | 0.00 | 0.00 | 994.1 | ||
| 20260506154620 | 40 | 0.0 | 0.0 | 0.00 | 0.00 | 0.00 | 994.1 | ||
| 20260506153620 | 40 | 0.0 | 0.0 | 0.00 | 0.00 | 0.00 | 993.9 | ||
| 20260506152619 | 40 | 0.0 | 0.0 | 0.00 | 0.00 | 0.00 | 993.8 | ||
| 20260506151618 | 40 | 0.0 | 0.0 | 0.00 | 0.00 | 0.00 | 993.8 | ||
| 20260506150618 | 41 | 0.0 | 0.0 | 0.00 | 0.00 | 0.00 | 993.6 | ||
| 20260506145618 | 41 | 0.0 | 0.0 | 0.00 | 0.00 | 0.00 | 993.6 | ||
| 20260506144617 | 41 | 0.0 | 0.0 | 0.00 | 0.00 | 0.00 | 993.5 | ||
| 20260506143616 | 41 | 0.0 | 0.0 | 0.00 | 0.00 | 0.00 | 993.4 | ||
| 20260506142616 | 42 | 0.0 | 0.0 | 0.00 | 0.00 | 0.00 | 993.2 | ||
| 20260506141615 | 42 | 0.0 | 0.0 | 0.00 | 0.00 | 0.00 | 993.2 | ||
| 20260506140615 | 41 | 0.0 | 0.0 | 0.00 | 0.00 | 0.00 | 993.1 | ||
| 20260506135614 | 42 | 0.0 | 0.0 | 0.00 | 0.00 | 0.00 | 993.0 | ||
| 20260506134614 | 41 | 0.0 | 0.0 | 0.00 | 0.00 | 0.00 | 992.9 | ||
| 20260506133613 | 43 | 0.0 | 0.0 | 0.00 | 0.00 | 0.00 | 992.6 | ||
| 20260506132613 | 42 | 0.0 | 0.0 | 0.00 | 0.00 | 0.00 | 992.8 | ||
| 20260506131612 | 42 | 0.0 | 0.0 | 0.00 | 0.00 | 0.00 | 992.6 | ||
| 20260506130612 | 42 | 0.0 | 0.0 | 0.00 | 0.00 | 0.00 | 992.4 | ||
| 20260506125611 | 43 | 0.0 | 0.0 | 0.00 | 0.00 | 0.00 | 992.4 | ||
| 20260506124611 | 42 | 0.0 | 0.0 | 0.00 | 0.00 | 0.00 | 992.3 | ||
| 20260506123610 | 42 | 0.0 | 0.0 | 0.00 | 0.00 | 0.00 | 992.2 | ||
| 20260506122610 | 41 | 0.0 | 0.0 | 0.00 | 0.00 | 0.00 | 992.0 | ||
| 20260506121609 | 41 | 0.0 | 0.0 | 0.00 | 0.00 | 0.00 | 992.0 | ||
| 20260506120609 | 41 | 0.0 | 0.0 | 0.00 | 0.00 | 0.00 | 991.8 | ||
| 20260506115608 | 41 | 0.0 | 0.0 | 0.00 | 0.00 | 0.00 | 991.7 | ||
| 20260506114608 | 41 | 0.0 | 0.0 | 0.00 | 0.00 | 0.00 | 991.5 | ||
| 20260506113607 | 42 | 0.0 | 0.0 | 0.00 | 0.00 | 0.00 | 991.3 | ||
| 20260506112607 | 43 | 0.0 | 0.0 | 0.00 | 0.00 | 0.00 | 991.2 | ||
| 20260506111606 | 43 | 0.0 | 0.0 | 0.00 | 0.00 | 0.00 | 991.1 | ||
| 20260506110606 | 41 | 0.0 | 0.0 | 0.00 | 0.00 | 0.00 | 991.0 | ||
| 20260506105605 | 42 | 0.0 | 0.0 | 0.00 | 0.00 | 0.00 | 990.8 | ||
| 20260506104605 | 42 | 0.0 | 0.0 | 0.00 | 0.00 | 0.00 | 990.7 | ||
| 20260506103604 | 42 | 0.0 | 0.0 | 0.00 | 0.00 | 0.00 | 990.6 | ||
| 20260506102604 | 42 | 0.0 | 0.0 | 0.00 | 0.00 | 0.00 | 990.4 | ||
| 20260506101603 | 42 | 0.0 | 0.0 | 0.00 | 0.00 | 0.00 | 990.3 | ||
| 20260506100603 | 41 | 0.0 | 0.0 | 0.00 | 0.00 | 0.00 | 990.1 | ||
| 20260506095602 | 42 | 0.0 | 0.0 | 0.00 | 0.00 | 0.00 | 990.1 | ||
| 20260506094602 | 41 | 0.0 | 0.0 | 0.00 | 0.00 | 0.00 | 989.8 | ||
| 20260506093601 | 42 | 0.0 | 0.0 | 0.00 | 0.00 | 0.00 | 989.6 | ||
| 20260506092601 | 41 | 0.0 | 0.0 | 0.00 | 0.00 | 0.00 | 989.4 | ||
| 20260506091601 | 42 | 0.0 | 0.0 | 0.00 | 0.00 | 0.00 | 989.4 | ||
| 20260506090600 | 42 | 0.0 | 0.0 | 0.00 | 0.00 | 0.00 | 989.2 | ||
| 20260506085600 | 40 | 0.0 | 0.0 | 0.00 | 0.00 | 0.00 | 989.0 | ||
| 20260506084559 | 41 | 0.0 | 0.0 | 0.00 | 0.00 | 0.00 | 989.0 | ||
| 20260506083558 | 43 | 0.0 | 0.0 | 0.00 | 0.00 | 0.00 | 988.8 | ||
| 20260506082558 | 41 | 0.0 | 0.0 | 0.00 | 0.00 | 0.00 | 988.5 | ||
| 20260506081557 | 41 | 0.0 | 0.0 | 0.00 | 0.00 | 0.00 | 988.4 | ||
| 20260506080557 | 42 | 0.0 | 0.0 | 0.00 | 0.00 | 0.00 | 988.3 | ||
| 20260506072555 | 39 | 0.0 | 0.0 | 0.00 | 0.00 | 0.00 | 988.0 | ||
| 20260506071554 | 39 | 0.0 | 0.0 | 0.00 | 0.00 | 0.00 | 987.9 | ||
| 20260506070554 | 39 | 0.0 | 0.0 | 0.00 | 0.00 | 0.00 | 987.7 | ||
| 20260506061551 | 39 | 0.0 | 0.0 | 0.00 | 0.00 | 0.00 | 987.1 | ||
| 20260506060551 | 38 | 0.0 | 0.0 | 0.00 | 0.00 | 0.00 | 986.9 | ||
| 20260506050548 | 38 | 0.0 | 0.0 | 0.00 | 0.00 | 0.00 | 986.3 | ||
| 20260506044547 | 38 | 0.0 | 0.0 | 0.00 | 0.00 | 0.00 | 986.1 | ||
| 20260506043547 | 38 | 0.0 | 0.0 | 0.00 | 0.00 | 0.00 | 985.9 | ||
| 20260506042546 | 38 | 0.0 | 0.0 | 0.00 | 0.00 | 0.00 | 986.0 | ||
| 20260506041545 | 37 | 0.0 | 0.0 | 0.00 | 0.00 | 0.00 | 985.8 | ||
| 20260506040545 | 37 | 0.0 | 0.0 | 0.00 | 0.00 | 0.00 | 985.7 | ||
| 20260506035545 | 37 | 0.0 | 0.0 | 0.00 | 0.00 | 0.00 | 985.6 | ||
| 20260506034544 | 37 | 0.0 | 0.0 | 0.00 | 0.00 | 0.00 | 985.4 | ||
| 20260506033544 | 37 | 0.0 | 0.0 | 0.00 | 0.00 | 0.00 | 985.4 | ||
| 20260506032543 | 37 | 0.0 | 0.0 | 0.00 | 0.00 | 0.00 | 985.2 | ||
| 20260506031543 | 37 | 0.0 | 0.0 | 0.00 | 0.00 | 0.00 | 985.1 | ||
| 20260506030542 | 37 | 0.0 | 0.0 | 0.00 | 0.00 | 0.00 | 985.0 | ||
| 20260506025542 | 37 | 0.0 | 0.0 | 0.00 | 0.00 | 0.00 | 984.9 | ||
| 20260506024541 | 37 | 0.0 | 0.0 | 0.00 | 0.00 | 0.00 | 984.8 | ||
| 20260506023541 | 37 | 0.0 | 0.0 | 0.00 | 0.00 | 0.00 | 984.7 | ||
| 20260506022540 | 36 | 0.0 | 0.0 | 0.00 | 0.00 | 0.00 | 984.5 | ||
| 20260506021540 | 37 | 0.0 | 0.0 | 0.00 | 0.00 | 0.00 | 984.4 | ||
| 20260506020539 | 36 | 0.0 | 0.0 | 0.00 | 0.00 | 0.00 | 984.2 | ||
| 20260506015539 | 37 | 0.0 | 0.0 | 0.00 | 0.00 | 0.00 | 984.1 | ||
| 20260506014538 | 37 | 0.0 | 0.0 | 0.00 | 0.00 | 0.00 | 984.1 | ||
| 20260506013538 | 36 | 0.0 | 0.0 | 0.00 | 0.00 | 0.00 | 983.9 | ||
| 20260506012537 | 36 | 0.0 | 0.0 | 0.00 | 0.00 | 0.00 | 983.8 | ||
| 20260506011537 | 36 | 0.0 | 0.0 | 0.00 | 0.00 | 0.00 | 983.7 | ||
| 20260506010536 | 36 | 0.0 | 0.0 | 0.00 | 0.00 | 0.00 | 983.6 | ||
| 20260506005536 | 36 | 0.0 | 0.0 | 0.00 | 0.00 | 0.00 | 983.4 | ||
| 20260506004535 | 36 | 0.0 | 0.0 | 0.00 | 0.00 | 0.00 | 983.3 | ||
| 20260506003535 | 37 | 0.0 | 0.0 | 0.00 | 0.00 | 0.00 | 983.2 | ||
| 20260506002534 | 37 | 0.0 | 0.0 | 0.00 | 0.00 | 0.00 | 983.1 | ||
| 20260506001534 | 37 | 0.0 | 0.0 | 0.00 | 0.00 | 0.00 | 982.9 | ||
| 20260506000533 | 37 | 0.0 | 0.0 | 0.00 | 0.00 | 0.00 | 982.8 | ||
| 20260505235533 | 38 | 0.0 | 0.0 | 0.00 | 0.00 | 0.00 | 982.7 | ||
| 20260505234532 | 38 | 0.0 | 0.0 | 0.00 | 0.00 | 0.00 | 982.6 | ||
| 20260505233532 | 37 | 0.0 | 0.0 | 0.00 | 0.00 | 0.00 | 982.6 | ||
| 20260505232531 | 37 | 0.0 | 0.0 | 0.00 | 0.00 | 0.00 | 982.5 | ||
| 20260505231531 | 37 | 0.0 | 0.0 | 0.00 | 0.00 | 0.00 | 982.5 | ||
| 20260505230530 | 37 | 0.0 | 0.0 | 0.00 | 0.00 | 0.00 | 982.4 | ||
| 20260505225530 | 37 | 0.0 | 0.0 | 0.00 | 0.00 | 0.00 | 982.3 | ||
| 20260505224529 | 38 | 0.0 | 0.0 | 0.00 | 0.00 | 0.00 | 982.2 | ||
| 20260505223529 | 38 | 0.0 | 0.0 | 0.00 | 0.00 | 0.00 | 982.2 | ||
| 20260505222528 | 37 | 0.0 | 0.0 | 0.00 | 0.00 | 0.00 | 982.1 | ||
| 20260505221528 | 37 | 0.0 | 0.0 | 0.00 | 0.00 | 0.00 | 982.1 | ||
| 20260505220527 | 37 | 0.0 | 0.0 | 0.00 | 0.00 | 0.00 | 982.1 | ||
| 20260505215527 | 37 | 0.0 | 0.0 | 0.00 | 0.00 | 0.00 | 982.0 | ||
| 20260505214526 | 37 | 0.0 | 0.0 | 0.00 | 0.00 | 0.00 | 981.9 | ||
| 20260505213526 | 37 | 0.0 | 0.0 | 0.00 | 0.00 | 0.00 | 981.7 | ||
| 20260505212525 | 38 | 0.0 | 0.0 | 0.00 | 0.00 | 0.00 | 981.5 | ||
| 20260505211525 | 37 | 0.0 | 0.0 | 0.00 | 0.00 | 0.00 | 981.6 | ||
| 20260505210524 | 38 | 0.0 | 0.0 | 0.00 | 0.00 | 0.00 | 981.4 | ||
| 20260505205524 | 38 | 0.0 | 0.0 | 0.00 | 0.00 | 0.00 | 981.4 | ||
| 20260505204523 | 38 | 0.0 | 0.0 | 0.00 | 0.00 | 0.00 | 981.3 | ||
| 20260505203523 | 38 | 0.0 | 0.0 | 0.00 | 0.00 | 0.00 | 981.1 | ||
| 20260505202522 | 39 | 0.0 | 0.0 | 0.00 | 0.00 | 0.00 | 981.1 | ||
| 20260505201522 | 39 | 0.0 | 0.0 | 0.00 | 0.00 | 0.00 | 981.0 | ||
| 20260505200521 | 39 | 0.0 | 0.0 | 0.00 | 0.00 | 0.00 | 980.9 | ||
| 20260505195521 | 39 | 0.0 | 0.0 | 0.00 | 0.00 | 0.00 | 980.8 | ||
| 20260505194520 | 39 | 0.0 | 0.0 | 0.00 | 0.00 | 0.00 | 980.6 | ||
| 20260505193520 | 39 | 0.0 | 0.0 | 0.00 | 0.00 | 0.00 | 980.6 | ||
| 20260505192519 | 38 | 0.0 | 0.0 | 0.00 | 0.00 | 0.00 | 980.6 |